Find Starlink 30969

NORAD ID: 58438 Int'l Des: 2023-183 Owner: SPXS Country: US Constellation: starlink operational
LEOCIRCULAR

Live Position

Loading 3D Globe...

About Starlink 30969

Description loading...

Upcoming Passes

Passes for default location (London). Set your location on the main map for personalized predictions.

Altitude History

Loading altitude history...

Two-Line Element Set

1 58438U 23183B 26121.25844926 -.00009332 00000-0 -33034-3 0 9992
2 58438 42.9983 104.7803 0000690 258.1150 101.9624 15.27551737134773
Epoch: May 1, 2026 • Age: 13 hours

Current Status

Altitude 487.5 km
Velocity 7.62 km/s
Sub-Earth Point -20.76°S, 150.55°E
Launch Date Nov 28, 2023
Age 2.4 years
Type internet

Technical Details

Classification Payload
Mass 730.00 kg
Dry Mass 700.00 kg
Total Mass 730.00 kg
Length 0.30 m
Diameter 4.10 m
Span 29.00 m
Shape Box + pan
Manufacturer SPXS
Bus Type Starlink V2M
Phase Status In Orbit
Owner/State SPXS/US

Most Searched